ONEWEB-0324, 49193

Orbit data source: Space-Track

ONEWEB-0324, 49193 is a payload satellite owned by One Web (NAA) (UK) in LEO that was launched on Tue, 14 Sep 2021 UTC via a SOYUZ-2-1B launch vehicle from the Tyuratam Missile And Space Complex (TTMTR). Payload-class satellites include a variety of spacecraft equipped with specific instruments for various scientific and technological missions. These include communications satellites like Starlink; space stations such as the ISS; scientific satellites like the Hubble; Earth observation satellites from companies like Planet Labs, Umbra, and HawkEye 360; GPS; miniature CubeSats for education and research; and military/defense satellites.

Loading next visibility...
Identifier
49193, 2021-083H
Orbit
LEO
Country
Flag of UKUK
Related business
Manufacturer
One Web
Mission
Operational Commercial Communications
Bus & Motor
ARROW, Unknown motor
Mass
148 kg wet, ~140 kg dry
Launch date (UTC)
2021-09-14 (5 years ago)
Launch vehicle
SOYUZ-2-1B
Launch site
Tyuratam Missile And Space Complex (TTMTR)
Object type
Payload
Rocket body
Debris
Shape & HBR
Trap Box + 2 Pan, 6.7 m
Radar Cross Section
3.464 m², Large (>1 m²)

Expand to show TLE details & history
Last TLE update: 2 days ago

TLE from 2 days ago
0 ONEWEB-0324
1 49193U 21083H   26171.39789654  .00000069  00000-0  14236-3 0  9992
2 49193  87.9176 334.8104 0002014  97.3903 262.7457 13.18685653230427
Epoch: 2026-06-20T09:32Z
TLE epoch observation values (Epoch: 2026-06-20T09:32:58.261Z)
Latitude
-0.0001°
Longitude
-77.04546°
Altitude
1,192.837 km
Speed
7.257 km/s
True Right ascension
22h 19m 14s
True Declination
0° 00' 00"
Sunlit
Object was in daylight at epoch
Visualization orbit readout
Latitude
Unknown
Longitude
Unknown
Altitude
Unknown
Speed
Unknown
Apparent Right ascension
Unknown
Apparent Declination
Unknown
Sunlit
N/A
Visualization observer readout
Local Sidereal Time
21:30:55
Azimuth
Unknown
Elevation
Unknown
Doppler factor
Unknown
Orbital elements
Apogee altitude
1,188.375 km
Perigee altitude
1,185.328 km
Semi-major axis
7,564.989 km
Eccentricity
0.0002
Inclination
87.9176°
RAAN
334.8104°
Arg. of periapsis
97.3903°
True anomaly
262.72281°
Mean anomaly
262.7457°
Eccentric anomaly
262.73425°
Mean motion
3.29861 °/min
Orbital period
109.14 mins
BSTAR
0.00014236
Loading maneuver chart data...
Computing Atmospheric mass density...
Loading historical data...
Loading historical data...
Loading historical data...
Loading historical data...
Loading historical data...
Loading historical data...
Loading historical data...

Documentation

Showing up to 5 results
|